This demonstration page uses our WeatherBlox Daily Observations layout. Learn more.

Hourly Observations for July 11, 2019

Temp ( °F °C ) Dew Point ( °F °C ) Humidity (%) Winds ( mph kmh ) Pressure ( in mb ) Visibility ( mi km ) Precip ( " mm )
12:15 am 00:15 Mostly Cloudy 79 26 70 21 74 74 S 6 9 30 1016 10 16.09344 0 0
12:35 am 00:35 Cloudy 77 25 70 21 79 79 SSE 3 6 30 1016 10 16.09344 0 0
12:55 am 00:55 Mostly Cloudy 79 26 68 20 70 70 S 6 9 30 1016 10 16.09344 0 0
1:15 am 01:15 Partly Cloudy 77 25 70 21 79 79 S 3 6 30 1016 10 16.09344 0 0
1:35 am 01:35 Partly Cloudy 77 25 70 21 79 79 S 3 6 29.97 1015 10 16.09344 0 0
1:55 am 01:55 Mostly Cloudy 77 25 70 21 79 79 SSE 8 13 29.97 1015 10 16.09344 0 0
2:15 am 02:15 Partly Cloudy 77 25 70 21 79 79 SE 6 9 29.97 1015 10 16.09344 0 0
2:35 am 02:35 Mostly Cloudy 77 25 70 21 79 79 SSE 7 11 29.97 1015 10 16.09344 0 0
2:55 am 02:55 Cloudy 77 25 70 21 79 79 S 7 11 29.97 1015 10 16.09344 0 0
3:15 am 03:15 Mostly Cloudy 77 25 70 21 79 79 SSE 7 11 29.94 1014 10 16.09344 0 0
3:35 am 03:35 Mostly Cloudy 75 24 70 21 83 83 S 3 6 29.94 1014 10 16.09344 0 0
3:55 am 03:55 Mostly Cloudy 73 23 70 21 89 89 Calm 29.94 1014 10 16.09344 0 0
4:15 am 04:15 Cloudy 73 23 70 21 89 89 SSE 3 6 29.94 1014 10 16.09344 0 0
4:35 am 04:35 Cloudy 73 23 70 21 89 89 S 6 9 29.94 1014 10 16.09344 0 0
4:55 am 04:55 Mostly Cloudy 73 23 70 21 89 89 S 5 7 29.94 1014 10 16.09344 0 0
5:15 am 05:15 Mostly Cloudy 73 23 70 21 89 89 Calm 29.97 1015 10 16.09344 0 0
5:35 am 05:35 Partly Cloudy 73 23 70 21 89 89 S 5 7 29.94 1014 10 16.09344 0 0
5:55 am 05:55 Partly Cloudy 72 22 70 21 94 94 Calm 29.94 1014 10 16.09344 0 0
6:15 am 06:15 Sunny 72 22 72 22 100 100 SSW 5 7 29.94 1014 10 16.09344 0 0
6:35 am 06:35 Sunny 72 22 72 22 100 100 S 3 6 29.94 1014 10 16.09344 0 0
6:55 am 06:55 Sunny 72 22 72 22 100 100 S 7 11 29.94 1014 10 16.09344 0 0
7:15 am 07:15 Sunny 72 22 72 22 100 100 S 3 6 29.94 1014 10 16.09344 0 0
7:35 am 07:35 Sunny 73 23 72 22 94 94 S 5 7 29.94 1014 10 16.09344 0 0
7:55 am 07:55 Sunny 75 24 72 22 89 89 S 5 7 29.94 1014 10 16.09344 0 0
8:15 am 08:15 Sunny 77 25 72 22 83 83 S 6 9 29.94 1014 10 16.09344 0 0
8:35 am 08:35 Partly Cloudy 79 26 72 22 79 79 SSW 7 11 29.94 1014 10 16.09344 0 0
8:55 am 08:55 Partly Cloudy 79 26 72 22 79 79 S 8 13 29.94 1014 10 16.09344 0 0
9:15 am 09:15 Partly Cloudy 79 26 73 23 84 84 S 9 15 29.94 1014 10 16.09344 0 0
9:35 am 09:35 Partly Cloudy 79 26 73 23 84 84 S 9 15 29.94 1014 10 16.09344 0 0
9:55 am 09:55 Sunny 79 26 73 23 84 84 S 7 11 29.94 1014 10 16.09344 0 0
10:15 am 10:15 Sunny 81 27 73 23 79 79 SSE 6 9 29.94 1014 10 16.09344 0 0
10:35 am 10:35 Mostly Cloudy 82 28 73 23 74 74 S 5 7 29.94 1014 10 16.09344 0 0
10:55 am 10:55 Mostly Cloudy 82 28 73 23 74 74 S 8 13 29.91 1013 10 16.09344 0 0
11:15 am 11:15 Mostly Cloudy 82 28 73 23 74 74 SSE 5 7 29.91 1013 10 16.09344 0 0
11:35 am 11:35 Mostly Cloudy 84 29 77 25 79 79 SW 6 9 29.91 1013 10 16.09344 0 0
11:55 am 11:55 Mostly Cloudy 84 29 75 24 74 74 Calm 29.91 1013 10 16.09344 0 0
12:15 pm 12:15 Mostly Cloudy 88 31 77 25 70 70 S 8 13 29.88 1012 10 16.09344 0 0
12:35 pm 12:35 Mostly Cloudy 90 32 77 25 67 67 W 8 13 29.85 1011 10 16.09344 0 0
12:55 pm 12:55 Mostly Cloudy 88 31 77 25 70 70 SSW 6 9 29.85 1011 10 16.09344 0 0
1:15 pm 13:15 Mostly Cloudy 90 32 77 25 67 67 SW 3 6 29.85 1011 10 16.09344 0 0
1:35 pm 13:35 Cloudy 88 31 77 25 70 70 WSW 6 9 29.83 1010 10 16.09344 0 0
1:55 pm 13:55 Cloudy 88 31 77 25 70 70 W 6 9 29.83 1010 10 16.09344 0 0
2:15 pm 14:15 Cloudy with Nearby Thunderstorms 79 26 77 25 94 94 NNW 12 19 29.85 1011 7 11.265408 0 0
2:35 pm 14:35 Cloudy with Thunderstorms 79 26 77 25 94 94 SSW 3 6 29.85 1011 10 16.09344 0 0
3:15 pm 15:15 Mostly Cloudy with Nearby Thunderstorms 81 27 77 25 89 89 SW 7 11 29.83 1010 10 16.09344 0 0
3:35 pm 15:35 Mostly Cloudy with Thunderstorms 81 27 77 25 89 89 SSW 7 11 29.83 1010 10 16.09344 0 0
3:55 pm 15:55 Mostly Cloudy 81 27 77 25 89 89 WSW 5 7 29.83 1010 10 16.09344 0 0
4:15 pm 16:15 Cloudy with Nearby Thunderstorms 79 26 77 25 94 94 WSW 3 6 29.83 1010 10 16.09344 0 0
4:35 pm 16:35 Mostly Cloudy 77 25 75 24 94 94 SW 3 6 29.83 1010 10 16.09344 0.01 0.254
4:55 pm 16:55 Mostly Cloudy 77 25 75 24 94 94 WNW 8 13 29.83 1010 10 16.09344 0.01 0.254
5:15 pm 17:15 Mostly Cloudy with Nearby Thunderstorms 75 24 73 23 94 94 SW 12 19 29.85 1011 10 16.09344 0 0
5:35 pm 17:35 Cloudy with Thunderstorms 73 23 73 23 100 100 SSE 3 6 29.83 1010 2.5 4.02336 0.21 5.334
5:55 pm 17:55 Partly Cloudy with Thunderstorms 72 22 72 22 100 100 Calm 29.83 1010 5 8.04672 0.24 6.096
6:15 pm 18:15 Partly Cloudy with Thunderstorms 72 22 72 22 100 100 WSW 6 9 29.83 1010 5 8.04672 0.03 0.762
6:35 pm 18:35 Partly Cloudy with Nearby Thunderstorms 72 22 72 22 100 100 WSW 7 11 29.83 1010 7 11.265408 0.05 1.27
6:55 pm 18:55 Sunny 70 21 70 21 100 100 WSW 3 6 29.8 1009 10 16.09344 0.07 1.778
7:15 pm 19:15 Partly Cloudy with Nearby Thunderstorms 70 21 70 21 100 100 S 5 7 29.8 1009 10 16.09344 0 0
7:35 pm 19:35 Sunny 70 21 70 21 100 100 W 5 7 29.83 1010 10 16.09344 0 0
7:55 pm 19:55 Sunny 70 21 70 21 100 100 W 6 9 29.83 1010 10 16.09344 0 0
8:15 pm 20:15 Sunny 70 21 70 21 100 100 W 6 9 29.83 1010 10 16.09344 0 0
8:35 pm 20:35 Sunny 68 20 68 20 100 100 WSW 6 9 29.8 1009 10 16.09344 0 0
8:55 pm 20:55 Clear 68 20 68 20 100 100 W 6 9 29.8 1009 10 16.09344 0 0
9:15 pm 21:15 Clear 68 20 68 20 100 100 SW 3 6 29.8 1009 10 16.09344 0 0
9:35 pm 21:35 Clear 68 20 68 20 100 100 Calm 29.83 1010 10 16.09344 0 0
9:55 pm 21:55 Clear 68 20 68 20 100 100 S 3 6 29.83 1010 10 16.09344 0 0
10:15 pm 22:15 Partly Cloudy 68 20 68 20 100 100 Calm 29.83 1010 10 16.09344 0 0
10:35 pm 22:35 Partly Cloudy 68 20 68 20 100 100 SSE 3 6 29.83 1010 10 16.09344 0 0
10:55 pm 22:55 Clear 68 20 68 20 100 100 Calm 29.83 1010 10 16.09344 0 0
11:15 pm 23:15 Clear 66 19 66 19 100 100 Calm 29.83 1010 10 16.09344 0 0
11:35 pm 23:35 Partly Cloudy 66 19 66 19 100 100 N 3 6 29.83 1010 10 16.09344 0 0
11:55 pm 23:55 Mostly Cloudy 66 19 66 19 100 100 N 3 6 29.83 1010 10 16.09344 0 0

Powered by AerisWeather